Location: Ay?beleni
(36.6500°N, 30.3000°E)
Time: 01:19:16
(UTC+00:00)

CZ-4C R/B - Pass Details

Date: 09 April 2020
Orbit: 637 x 1364 km, 63.4° (Epoch: 25 May)

Event Time Altitude Azimuth Distance (km) Brightness Sun altitude
Rises 20:55:07 0° 327° (NNW) 3,947 6.5 -42.8°
Reaches altitude 10° 20:57:40 10° 326° (NNW) 3,076 5.7 -43.0°
Enters shadow 21:01:47 38° 324° (NW) 1,801 4.1 -43.3°
